Location: Marsån
(66.4167°N, 22.2833°E)
Time: 07:40:43
(UTC+00:00)

Cosmos 1076 Rocket - Pass Details

Date: 24 February 2024
Orbit: 586 x 608 km, 82.5° (Epoch: 20 April)

Event Time Altitude Azimuth Distance (km) Brightness Sun altitude
Rises 17:32:50 0° 164° (SSE) 2,816 6.7 -13.5°
Reaches altitude 10° 17:35:10 10° 155° (SSE) 1,922 5.8 -13.8°
Maximum altitude 17:38:58 33° 91° (E) 1,009 4.1 -14.1°
Drops below altitude 10° 17:42:49 10° 27° (NNE) 1,944 5.9 -14.5°
Sets 17:45:11 0° 18° (NNE) 2,854 6.9 -14.7°
